{"data":{"norad_id":52849,"intl_designator":"2022-062V","name":"STARLINK-4197","alt_names":[],"object_type":"PAYLOAD","status":"ACTIVE","operator":null,"country":"US","launch_date":"2022-06-17","launch_site_code":"AFETR","launch_vehicle":null,"mission":null,"orbit_class":"UNKNOWN","rcs_meters":null,"size_class":null,"mass_kg":null,"dimensions":null,"purposes":["comms"],"wikipedia_slug":null,"has_3d_model":false,"image_url":null,"decayed_at":null,"tle_current":{"epoch":"2026-09-20T03:32:04.559136Z","epoch_age_seconds":96885,"freshness":"FRESH","line1":"1 52849U 22062V   26263.14727499 -.00000710  00000+0 -94381-5 0  9991","line2":"2 52849  53.1599 219.5626 0001319  79.8396 280.2756 15.35393852235430","mean_motion":15.35393852,"eccentricity":0.0001319,"inclination_deg":53.1599,"raan_deg":219.5626,"arg_perigee_deg":79.8396,"mean_anomaly_deg":280.2756,"bstar":-9.4381e-6,"rev_number":23543,"period_min":93.787010943431,"perigee_km":458.84897870905,"apogee_km":460.65281353605,"semimajor_km":6837.8878961226,"source":"CELESTRAK","updated_at":"2026-09-20T09:00:40.114680Z"}}}